Date String (YYYY-MM-DD hh:mm:ss) UTC,Instrument flags,Ambient pressure (hPa),Sample flow (lpm),Bypass flow (lpm),Sample temperature (°C),Ambient temperature (°C),ASC tube jacket temperature (°C),LED temperature (°C),Box temperature (°C),Sample RH (%),Span deviation,Mass concentration (μg/m³),Mass concentration (μg/m³),Mass concentration (μg/m³)
DateTimeUTC,F1_M11,P_M11,Q1_M11,Q2_M11,T1_M11,T2_M11,T3_M11,T4_M11,T5_M11,U1_M11,ZSPAN_M11,X0_M11,X2_M11,X1_M11
2021-11-29 18:00:00,,0828.4,5.00,0.00,30.2,28.1,00.0,39.4,31.8,11.9,0000.0,0033.32,0005.54,0002.05
2021-11-29 18:01:00,,0828.5,5.00,0.00,30.2,28.4,00.0,39.4,31.9,11.8,0000.0,0033.71,0005.59,0002.04
2021-11-29 18:02:00,,0828.5,5.01,0.00,30.3,28.7,00.0,39.4,31.9,11.7,0000.0,0033.75,0005.59,0002.01
2021-11-29 18:03:00,,0828.4,4.99,0.00,30.3,28.9,00.0,39.3,32.0,11.6,0000.0,0033.11,0005.45,0001.96
2021-11-29 18:04:00,,0828.4,5.00,0.00,30.3,29.0,00.0,39.3,32.0,11.7,0000.0,0033.26,0005.39,0001.90
2021-11-29 18:05:00,,0828.4,4.99,0.00,30.3,29.2,00.0,39.3,32.0,11.7,0000.0,0032.94,0005.26,0001.85
2021-11-29 18:06:00,,0828.4,5.01,0.00,30.4,29.3,00.0,39.4,32.1,11.6,0000.0,0031.83,0005.07,0001.81
2021-11-29 18:07:00,,0828.5,5.00,0.00,30.4,29.4,00.0,39.4,32.1,11.5,0000.0,0030.79,0004.94,0001.75
2021-11-29 18:08:00,,0828.3,4.99,0.00,30.4,29.4,00.0,39.4,32.1,11.4,0000.0,0029.09,0004.82,0001.69
2021-11-29 18:09:00,,0828.4,5.00,0.00,30.4,29.5,00.0,39.4,32.2,11.4,0000.0,0027.36,0004.68,0001.62
2021-11-29 18:10:00,,0828.3,5.00,0.00,30.5,29.6,00.0,39.4,32.2,11.3,0000.0,0027.64,0004.56,0001.55
2021-11-29 18:11:00,,0828.3,5.01,0.00,30.5,29.6,00.0,39.4,32.2,11.3,0000.0,0027.09,0004.43,0001.49
2021-11-29 18:12:00,,0828.2,4.99,0.00,30.5,29.7,00.0,39.4,32.3,11.2,0000.0,0026.32,0004.28,0001.43
2021-11-29 18:13:00,,0828.2,5.01,0.00,30.6,29.7,00.0,39.4,32.3,11.2,0000.0,0025.90,0004.19,0001.39
2021-11-29 18:14:00,,0828.2,4.99,0.00,30.6,29.8,00.0,39.5,32.3,11.1,0000.0,0025.01,0004.16,0001.35
2021-11-29 18:15:00,,0828.2,5.00,0.00,30.6,29.8,00.0,39.5,32.4,11.1,0000.0,0023.51,0004.06,0001.31
2021-11-29 18:16:00,,0828.2,5.00,0.00,30.6,28.3,00.0,39.5,32.0,11.2,0000.0,0023.78,0004.00,0001.28
2021-11-29 18:17:00,,0828.1,5.00,0.00,30.4,26.4,00.0,39.4,31.5,11.2,0000.0,0022.90,0003.93,0001.23
2021-11-29 18:18:00,,0828.3,5.00,0.00,30.3,26.3,00.0,39.4,31.5,11.4,0000.0,0021.93,0003.90,0001.23
2021-11-29 18:19:00,,0828.1,4.99,0.00,30.2,26.7,00.0,39.4,31.6,11.5,0000.0,0022.76,0003.90,0001.22
2021-11-29 18:20:00,,0828.1,5.01,0.00,30.1,27.2,00.0,39.3,31.6,11.6,0000.0,0023.67,0003.91,0001.23
2021-11-29 18:21:00,,0828.1,5.00,0.00,30.1,27.6,00.0,39.3,31.6,11.6,0000.0,0023.35,0003.90,0001.24
2021-11-29 18:22:00,,0828.1,5.00,0.00,30.1,28.0,00.0,39.2,31.7,11.6,0000.0,0023.02,0003.94,0001.25
2021-11-29 18:23:00,,0828.1,5.01,0.00,30.1,28.3,00.0,39.2,31.7,11.7,0000.0,0023.95,0003.92,0001.27
2021-11-29 18:24:00,,0828.1,5.00,0.00,30.1,28.5,00.0,39.2,31.8,11.6,0000.0,0023.37,0003.94,0001.30
2021-11-29 18:25:00,,0828.0,5.00,0.00,30.2,28.7,00.0,39.2,31.9,11.6,0000.0,0022.56,0003.95,0001.30
2021-11-29 18:26:00,,0828.0,4.99,0.00,30.2,28.9,00.0,39.2,31.9,11.4,0000.0,0023.25,0003.99,0001.30
2021-11-29 18:27:00,,0828.0,5.00,0.00,30.2,29.1,00.0,39.2,31.9,11.2,0000.0,0023.15,0003.97,0001.30
2021-11-29 18:28:00,,0828.1,5.00,0.00,30.2,29.2,00.0,39.2,32.0,11.1,0000.0,0023.43,0003.93,0001.29
2021-11-29 18:29:00,,0828.0,5.02,0.00,30.3,29.3,00.0,39.2,32.0,11.1,0000.0,0024.45,0003.87,0001.27
2021-11-29 18:30:00,,0828.0,4.99,0.00,30.3,29.4,00.0,39.2,32.1,11.2,0000.0,0023.92,0003.86,0001.25
2021-11-29 18:31:00,,0828.0,5.01,0.00,30.3,29.4,00.0,39.3,32.1,11.2,0000.0,0022.97,0003.79,0001.23
2021-11-29 18:32:00,,0828.0,4.99,0.00,30.4,29.5,00.0,39.3,32.1,11.2,0000.0,0022.08,0003.77,0001.23
2021-11-29 18:33:00,,0828.0,5.01,0.00,30.4,29.6,00.0,39.3,32.2,11.3,0000.0,0021.65,0003.74,0001.24
2021-11-29 18:34:00,,0827.9,5.00,0.00,30.4,29.6,00.0,39.3,32.2,11.4,0000.0,0020.45,0003.72,0001.24
2021-11-29 18:35:00,,0827.9,4.99,0.00,30.5,29.7,00.0,39.3,32.3,11.1,0000.0,0019.58,0003.64,0001.20
2021-11-29 18:36:00,,0828.0,4.99,0.00,30.5,29.7,00.0,39.4,32.3,10.9,0000.0,0018.77,0003.61,0001.20
2021-11-29 18:37:00,,0828.0,5.01,0.00,30.5,29.7,00.0,39.4,32.3,11.0,0000.0,0018.17,0003.59,0001.20
2021-11-29 18:38:00,,0828.0,5.01,0.00,30.5,27.9,00.0,39.4,31.9,11.2,0000.0,0017.98,0003.66,0001.23
2021-11-29 18:39:00,,0827.9,4.98,0.00,30.3,26.2,00.0,39.3,31.4,11.2,0000.0,0018.82,0003.70,0001.26
2021-11-29 18:40:00,,0827.9,5.01,0.00,30.1,26.2,00.0,39.3,31.4,11.1,0000.0,0018.92,0003.77,0001.26
2021-11-29 18:41:00,,0827.8,5.01,0.00,30.1,26.6,00.0,39.2,31.4,11.0,0000.0,0020.04,0003.77,0001.26
2021-11-29 18:42:00,,0827.9,4.98,0.00,30.0,27.1,00.0,39.2,31.4,10.9,0000.0,0020.62,0003.74,0001.24
2021-11-29 18:43:00,,0827.8,5.01,0.00,30.0,27.6,00.0,39.1,31.5,11.1,0000.0,0020.48,0003.73,0001.20
2021-11-29 18:44:00,,0827.9,5.00,0.00,30.0,27.9,00.0,39.1,31.6,11.0,0000.0,0021.08,0003.72,0001.17
2021-11-29 18:45:00,,0827.9,5.01,0.00,30.0,28.3,00.0,39.1,31.7,11.2,0000.0,0020.60,0003.73,0001.17
2021-11-29 18:46:00,,0827.9,4.99,0.00,30.0,28.5,00.0,39.1,31.8,11.0,0000.0,0020.56,0003.66,0001.14
2021-11-29 18:47:00,,0827.9,5.00,0.00,30.0,28.7,00.0,39.1,31.8,11.1,0000.0,0021.18,0003.64,0001.15
2021-11-29 18:48:00,,0827.9,5.00,0.00,30.1,28.9,00.0,39.1,31.8,11.2,0000.0,0021.50,0003.66,0001.15
2021-11-29 18:49:00,,0827.9,5.00,0.00,30.1,29.0,00.0,39.1,31.9,11.0,0000.0,0020.99,0003.62,0001.12
2021-11-29 18:50:00,,0827.9,5.00,0.00,30.2,29.1,00.0,39.1,31.9,11.1,0000.0,0020.69,0003.59,0001.09
2021-11-29 18:51:00,,0827.9,4.99,0.00,30.2,29.2,00.0,39.1,32.0,11.1,0000.0,0019.69,0003.58,0001.08
2021-11-29 18:52:00,,0827.9,4.99,0.00,30.2,29.3,00.0,39.1,32.0,11.1,0000.0,0020.62,0003.53,0001.08
2021-11-29 18:53:00,,0827.9,5.00,0.00,30.2,29.4,00.0,39.2,32.0,11.1,0000.0,0020.27,0003.63,0001.11
2021-11-29 18:54:00,,0827.9,5.01,0.00,30.3,29.5,00.0,39.2,32.1,11.1,0000.0,0020.91,0003.73,0001.16
2021-11-29 18:55:00,,0827.9,4.99,0.00,30.3,29.5,00.0,39.2,32.1,11.1,0000.0,0021.03,0003.77,0001.18
2021-11-29 18:56:00,,0827.9,5.01,0.00,30.4,29.6,00.0,39.2,32.2,11.1,0000.0,0022.39,0003.84,0001.20
2021-11-29 18:57:00,,0827.9,5.02,0.00,30.4,29.7,00.0,39.3,32.2,10.9,0000.0,0023.31,0003.87,0001.23
2021-11-29 18:58:00,,0827.9,4.99,0.00,30.4,29.7,00.0,39.3,32.3,10.8,0000.0,0024.08,0003.86,0001.23
2021-11-29 18:59:00,,0827.9,5.00,0.00,30.5,29.5,00.0,39.3,32.2,10.8,0000.0,0023.95,0003.83,0001.23
